Location: Doverdale
(52.2833°N, 2.2000°W)
Time: 03:30:51
(UTC+00:00)

Cosmos 2058 - Pass Details

Date: 29 October 2020
Orbit: 562 x 584 km, 82.5° (Epoch: 27 November)

Event Time Altitude Azimuth Distance (km) Brightness Sun altitude
Rises 17:27:32 0° 357° (N) 2,770 6.3 -7.1°
Reaches altitude 10° 17:30:01 10° 11° (N) 1,868 5.3 -7.5°
Maximum altitude 17:33:29 26° 68° (ENE) 1,145 3.9 -8.0°
Drops below altitude 10° 17:36:55 10° 125° (SE) 1,857 5.1 -8.5°
Sets 17:39:22 0° 139° (SE) 2,751 6.1 -8.9°
